カタログに戻る

FENGYUN 1C DEB

運用中SSO
NORAD 31043·DEBRIS·🇨🇳 China

打ち上げ May 10, 1999 から Taiyuan Satellite Launch Center

Loading…

次のパス (今後24時間)

TLE

最新Source: Space-Track

元期: Sep 14, 2026, 07:35 UTC

1 31043U 99025BEM 26257.31654321  .00000361  00000-0  23237-3 0  9993
2 31043  98.7521 272.2089 0040172 305.8407 121.3710 14.08818852998675

AllMySatでFENGYUN 1C DEBをリアルタイム追跡

Download on the App Store